GFSFLT2_sfc_30mbdewp_000.txt.gz
Dewpoint
59 63 65 65 66 66 66 66 66 65 65 65 64 63 62 61 60 60 59 58 58 57 57 57 56 58 59 58 58 58 60 59
56 59 60 61 63 64 65 65 65 64 63 63 63 62 61 59 60 58 58 58 57 57 56 55 55 56 57 57 54 56 56 57
54 55 55 61 61 62 63 63 63 63 63 61 61 62 61 59 57 58 58 58 58 57 56 54 53 54 56 57 56 53 55 52
56 56 56 54 51 60 61 60 62 62 61 61 61 58 57 56 58 60 59 59 59 58 57 56 56 55 53 56 56 52 50 49
58 59 57 55 52 53 55 56 56 59 59 58 58 57 59 59 61 61 61 61 61 58 58 57 54 53 49 48 48 48 48 48
59 58 58 56 56 52 53 54 54 55 57 57 57 57 56 54 53 50 49 50 51 52 51 52 52 49 43 42 43 46 42 41
55 58 57 58 55 56 56 55 56 54 54 55 55 55 55 54 51 50 49 48 48 49 48 49 49 45 42 39 40 42 41 41
57 58 56 53 53 54 56 55 54 55 51 49 51 52 53 52 50 50 48 48 49 47 47 49 49 47 43 41 39 41 41 43
59 63 56 50 51 54 54 47 46 47 48 48 48 49 50 52 51 50 51 51 49 49 50 49 49 48 45 43 41 42 42 41
58 59 53 48 52 49 49 50 49 48 49 48 49 49 49 50 51 50 51 53 50 50 49 48 48 47 47 46 41 41 42 42
53 54 50 47 49 48 48 48 48 46 44 47 46 46 49 48 48 50 51 50 50 50 49 48 48 48 47 45 45 43 40 41
49 51 46 45 48 48 45 44 44 45 45 44 46 45 45 46 47 48 50 49 47 48 50 48 47 47 47 46 47 46 44 42
50 49 48 46 46 43 42 43 42 43 42 41 41 44 43 44 44 45 43 44 45 45 44 43 44 47 46 46 45 46 48 47
48 46 43 41 41 42 43 42 41 41 43 42 43 42 41 39 41 41 43 43 42 44 46 43 40 41 42 42 39 39 42 43
42 41 41 42 41 40 39 39 40 40 41 42 42 42 39 39 39 41 42 41 40 41 41 41 41 40 40 40 37 36 38 39
41 40 39 40 40 40 39 39 40 42 44 44 44 40 39 37 37 39 40 41 39 42 39 41 41 39 41 42 41 40 39 38
42 40 39 39 39 39 40 44 45 44 43 41 39 39 37 36 36 37 40 39 40 41 39 41 42 41 40 38 38 36 37 36
41 38 37 39 40 41 40 38 38 38 38 37 36 35 35 36 37 37 40 39 39 40 42 41 40 40 40 38 37 36 34 34
40 41 39 38 37 37 37 38 38 37 36 35 34 34 35 34 37 36 37 37 38 38 39 41 39 38 38 38 38 36 36 35
41 41 40 39 39 38 39 38 37 36 36 34 34 34 35 34 37 37 36 37 37 38 38 38 38 39 37 36 36 36 36 36

GFSFLT2_sfc_30mbdewp_003.txt.gz
Dewpoint
67 67 67 66 66 67 66 66 65 65 64 64 64 63 61 61 60 59 58 58 57 57 56 56 56 57 57 58 58 57 57 58
63 63 64 64 65 65 65 65 64 63 62 63 62 62 59 60 59 58 58 56 57 56 55 55 55 55 55 56 57 59 54 56
60 61 61 62 63 64 64 63 63 62 62 62 62 62 60 59 59 58 58 58 58 58 56 55 55 55 55 55 57 58 55 56
57 58 62 60 59 62 62 63 63 63 63 63 62 62 62 59 59 59 59 59 60 59 59 57 57 56 53 51 55 55 52 52
57 56 55 56 58 61 62 62 62 63 62 60 60 58 59 58 60 60 60 61 60 60 59 58 56 56 52 45 43 44 46 46
58 58 56 55 52 55 57 58 59 60 60 59 59 57 54 53 51 52 55 57 59 59 56 54 55 53 50 42 39 40 43 42
58 58 57 56 55 56 55 56 55 56 58 57 55 55 52 53 52 50 49 49 49 49 49 48 50 49 45 41 37 37 39 41
58 58 59 57 54 56 56 54 54 56 53 52 53 51 54 53 51 51 49 50 50 48 47 47 48 49 47 44 38 36 37 40
59 61 60 53 53 54 56 46 47 49 49 48 49 50 50 50 51 51 51 52 52 50 49 50 49 50 50 46 43 40 39 39
60 58 59 54 52 50 50 50 47 49 49 50 48 49 49 49 47 47 51 51 50 48 48 49 49 49 48 48 46 43 41 41
57 53 56 54 48 49 49 47 47 47 46 45 43 47 47 46 46 46 48 48 48 49 49 49 46 45 45 44 45 45 44 41
55 55 55 49 48 44 45 42 43 43 40 39 41 44 42 41 42 42 43 44 43 43 44 44 44 44 45 44 47 48 49 47
50 46 43 45 42 42 40 39 40 41 39 42 40 39 39 40 40 44 44 41 42 42 43 40 41 43 40 40 41 43 42 43
42 42 41 42 43 43 41 40 40 39 40 41 43 43 43 40 41 43 42 40 39 38 37 41 41 41 39 40 37 39 40 42
39 38 38 40 39 38 38 38 39 41 44 43 42 44 41 39 39 39 39 41 38 39 41 37 38 40 42 41 38 37 39 41
39 38 37 38 39 39 39 42 43 43 42 41 43 39 37 38 37 37 40 40 39 40 41 41 42 40 42 40 40 38 36 34
39 38 38 38 37 37 40 39 39 40 41 37 35 35 36 36 37 37 39 39 38 39 40 40 40 40 40 39 38 37 37 33
37 36 36 38 37 37 39 36 36 38 35 32 32 34 36 33 36 37 38 38 38 38 41 40 39 39 38 38 37 36 35 34
39 39 38 37 38 37 36 37 35 34 32 31 31 34 32 34 36 36 35 35 37 37 38 38 38 37 37 37 37 35 36 35
40 39 38 38 38 37 37 37 36 34 32 30 31 33 35 36 37 36 37 36 36 36 36 36 37 36 36 36 36 36 36 36

GFSFLT2_sfc_30mbdewp_006.txt.gz
Dewpoint
69 69 68 67 67 66 66 66 65 65 65 64 62 61 61 60 59 58 58 56 56 55 55 55 55 55 54 54 55 58 57 54
66 66 65 65 65 65 65 64 63 63 63 62 61 60 59 60 59 58 58 56 56 56 56 55 55 54 55 56 55 57 55 54
63 62 62 63 64 64 64 63 62 62 62 62 62 61 59 59 60 57 59 57 57 58 58 57 55 55 55 55 55 54 54 53
59 60 60 61 61 63 62 62 62 61 62 62 62 62 62 59 59 60 59 60 59 60 60 60 58 56 55 52 46 49 49 48
59 60 60 59 59 60 61 62 61 62 62 62 62 62 59 61 59 59 60 59 59 60 59 58 57 56 55 52 44 41 42 45
58 60 60 57 59 60 60 60 61 62 62 60 59 58 54 54 54 55 54 54 55 57 57 56 54 55 54 52 44 39 39 42
57 57 56 55 55 58 58 59 60 61 60 59 56 55 52 52 52 51 50 50 50 49 51 49 48 49 49 47 44 40 37 39
59 58 58 55 56 56 56 56 56 57 58 56 53 52 54 53 51 51 50 52 52 51 49 49 49 50 50 49 47 43 38 37
58 58 57 54 54 56 56 50 51 53 52 51 51 51 51 51 49 47 49 50 49 49 49 49 48 48 47 48 49 47 44 40
60 54 56 53 53 53 50 49 49 49 51 48 49 49 48 46 43 43 46 46 46 44 46 45 44 45 46 45 46 47 46 44
57 58 57 54 52 51 49 48 47 45 44 43 46 44 43 42 41 41 44 44 43 44 42 44 41 41 40 39 42 44 45 47
55 57 56 51 47 46 45 44 44 41 40 42 43 42 42 41 41 43 44 43 40 40 39 39 41 42 38 38 40 41 42 44
48 50 48 43 45 43 42 39 40 40 42 43 43 44 43 42 43 42 43 41 40 39 40 40 37 39 37 36 38 36 40 41
43 42 43 44 44 44 43 41 41 43 44 42 43 41 40 39 38 39 41 39 38 39 41 39 40 40 39 40 31 34 34 39
38 39 40 40 40 39 40 41 42 43 40 41 38 37 38 37 37 38 39 40 38 38 40 40 39 41 42 40 36 35 37 39
37 37 37 38 38 38 39 41 40 42 42 38 34 36 36 36 37 38 40 39 38 40 41 40 39 38 40 40 39 37 34 33
38 38 38 37 37 38 40 39 38 41 37 33 32 35 35 36 38 38 37 38 38 39 40 39 40 39 39 39 38 37 37 34
37 36 36 38 37 37 39 37 38 35 32 31 31 34 34 36 36 36 36 37 37 37 36 37 37 36 37 37 37 35 34 34
39 39 38 38 39 38 38 37 34 32 32 33 31 32 35 37 37 36 36 37 36 36 35 35 36 35 35 36 36 36 36 35
40 37 36 37 36 36 37 36 36 36 36 34 35 37 37 37 36 35 34 34 35 35 34 34 34 33 33 34 35 36 36 35

GFSFLT2_sfc_30mbdewp_009.txt.gz
Dewpoint
69 69 69 69 67 66 65 65 65 65 64 64 63 61 60 58 58 58 57 55 55 56 56 55 56 55 55 55 55 57 55 54
67 67 67 66 66 65 64 64 63 64 64 62 61 59 59 59 58 58 58 55 56 56 56 56 55 56 56 56 53 53 51 51
65 65 64 64 64 64 64 63 62 62 62 62 61 60 59 58 59 59 59 58 57 57 58 58 57 56 55 56 52 47 48 47
63 62 62 62 63 63 62 62 61 61 61 61 61 61 60 59 59 59 60 60 60 60 60 60 60 57 54 55 50 44 42 42
60 60 60 61 60 62 61 61 61 61 61 61 61 61 61 60 60 58 59 59 58 59 58 58 57 56 55 54 52 45 40 39
59 59 59 58 60 60 59 60 61 61 61 61 60 59 56 56 55 53 51 51 50 54 55 55 54 52 53 54 53 47 41 39
59 60 58 58 58 58 59 59 60 61 61 60 59 56 52 52 52 51 51 51 51 50 49 49 48 49 50 49 49 47 44 41
58 59 58 56 56 58 58 59 60 60 60 59 57 54 53 53 50 49 49 50 49 49 48 48 48 48 45 47 48 48 46 43
57 58 58 55 56 56 57 57 56 58 56 53 52 52 51 48 45 44 45 48 46 45 45 45 42 43 42 44 44 44 44 45
59 59 57 56 55 56 52 50 50 52 51 49 48 47 47 45 42 42 44 46 45 43 44 40 40 41 40 39 40 43 42 46
57 60 59 57 53 51 51 49 46 45 44 47 45 44 43 42 42 44 45 44 42 41 40 41 39 40 38 38 38 39 38 46
57 55 53 51 48 46 47 46 44 44 43 43 43 44 42 42 41 43 43 40 39 39 39 40 40 41 38 35 35 35 37 45
51 50 48 46 45 45 45 41 42 43 44 44 41 41 38 37 38 38 39 38 38 40 40 38 37 41 38 37 35 32 36 42
45 44 44 45 45 45 44 43 43 46 42 39 39 39 37 36 36 38 39 38 37 38 39 38 39 41 40 39 34 34 38 38
40 40 41 41 42 43 41 42 43 42 41 37 36 37 36 36 37 39 39 39 38 40 40 39 38 39 41 39 35 34 36 37
37 37 37 38 39 38 38 38 39 42 39 34 34 36 36 37 38 38 38 38 38 40 40 39 39 38 39 39 38 38 34 31
37 38 37 37 38 38 40 40 39 39 34 32 32 35 37 37 36 36 37 37 37 36 36 35 35 34 35 35 36 36 36 33
37 38 38 39 38 38 40 38 37 32 34 35 33 34 36 37 37 37 37 36 36 35 35 34 34 35 35 35 35 34 34 34
40 39 38 37 37 36 36 33 32 35 36 36 35 36 38 36 37 36 36 35 35 34 33 33 33 30 32 33 34 34 36 34
34 35 34 35 35 35 35 34 35 36 37 37 37 37 37 37 36 34 33 33 34 34 32 32 32 30 29 31 32 33 34 34

GFSFLT2_sfc_30mbdewp_012.txt.gz
Dewpoint
68 68 68 68 68 67 67 66 66 65 64 63 63 61 59 58 58 58 56 56 56 56 57 57 57 57 56 56 54 54 50 51
66 66 68 67 66 66 64 64 64 64 63 62 61 60 59 59 58 58 58 57 57 57 57 57 57 57 57 57 56 47 45 47
66 66 66 65 64 64 64 63 63 62 62 61 60 58 58 58 59 59 59 59 59 59 59 59 59 58 57 56 56 48 43 43
64 65 64 63 63 63 62 61 61 61 61 61 60 60 59 60 59 59 60 60 60 60 60 60 59 57 55 55 53 51 46 42
63 63 62 61 61 62 60 61 60 60 60 60 60 60 60 59 59 58 57 56 54 55 56 56 56 55 53 53 53 53 49 45
61 60 60 60 60 60 59 60 60 60 61 61 60 59 58 56 54 51 50 50 50 51 51 52 50 49 50 51 51 50 48 46
58 59 58 59 58 59 59 59 60 60 60 61 59 57 53 52 51 51 50 51 50 48 48 48 48 47 46 47 47 46 45 45
58 59 59 57 58 58 58 59 60 60 60 59 57 54 53 52 49 48 47 48 47 47 47 46 45 44 41 43 42 43 43 45
58 59 57 57 57 57 58 58 57 58 57 54 53 52 52 47 44 43 44 47 45 44 44 41 40 41 39 40 38 40 42 46
59 59 59 59 57 57 55 52 53 52 51 51 48 46 44 43 43 44 45 43 41 41 42 39 40 40 38 37 37 38 39 46
58 59 59 58 55 54 51 48 47 46 45 44 44 44 43 42 43 43 41 39 39 39 39 38 38 39 37 37 35 36 39 45
57 56 55 53 49 48 48 46 47 46 44 42 42 41 40 40 39 39 39 37 38 38 36 38 39 40 37 36 36 36 41 43
52 53 51 48 47 46 43 43 45 44 42 40 40 38 37 36 37 38 38 37 38 39 38 37 36 41 38 33 36 35 39 41
50 47 46 47 45 46 47 44 45 42 39 37 38 36 37 37 38 39 38 37 38 39 38 36 37 41 39 38 32 33 37 35
43 44 43 44 45 43 42 43 44 41 39 34 36 36 37 37 38 38 37 37 38 38 38 37 36 38 40 37 34 31 35 35
38 39 38 39 39 38 38 38 39 40 35 33 35 36 36 37 36 37 36 38 39 38 38 36 37 34 37 36 36 37 33 29
38 38 39 38 38 40 40 39 40 35 33 34 33 35 35 35 36 37 38 37 36 36 35 33 34 32 33 34 34 35 35 34
38 39 38 39 38 39 38 38 33 32 35 35 35 35 36 36 37 37 37 36 35 34 34 33 33 32 32 32 33 32 30 30
38 36 35 35 34 34 34 33 32 34 35 36 36 37 38 38 37 36 35 35 34 33 31 30 30 28 28 29 32 31 33 33
35 34 34 36 37 36 36 36 36 37 38 38 38 38 37 37 36 34 33 33 32 33 33 30 31 28 27 28 30 31 32 31

GFSFLT2_sfc_30mbdewp_015.txt.gz
Dewpoint
68 68 68 68 68 68 67 66 65 64 64 63 62 60 59 59 59 59 58 58 58 58 58 58 59 59 58 58 57 50 45 44
67 67 67 67 67 67 66 65 64 64 63 62 60 59 58 58 57 58 59 59 59 59 59 59 59 59 58 57 57 50 47 45
65 65 66 67 66 65 64 64 63 63 62 61 59 58 58 58 59 59 60 60 60 60 60 60 60 57 56 56 55 51 51 47
65 65 65 66 63 63 62 61 60 60 60 61 60 60 60 60 60 59 59 59 58 57 58 58 57 54 52 52 51 53 51 50
64 64 65 64 62 62 60 60 60 61 62 62 61 61 61 60 60 57 56 53 52 53 54 53 54 52 51 51 50 49 48 47
64 65 63 62 61 61 60 59 60 60 61 62 62 61 59 57 53 53 53 53 52 51 50 52 51 49 48 49 47 43 41 41
62 61 61 60 60 60 59 60 61 61 61 62 61 59 56 55 54 51 50 49 48 48 48 48 46 45 45 44 41 41 40 39
59 60 59 59 59 60 60 61 61 62 62 61 60 57 56 54 49 46 46 48 47 46 47 44 42 41 40 42 40 39 41 41
59 59 59 59 59 59 59 56 57 58 58 57 55 54 50 47 46 47 47 46 45 45 44 42 41 38 37 36 37 37 38 44
60 59 59 59 58 57 52 53 54 54 53 52 50 48 48 48 46 46 45 43 43 42 40 38 38 37 35 35 36 33 37 45
59 60 58 58 57 53 51 50 50 48 49 48 47 46 46 45 44 43 42 40 40 38 37 38 36 34 28 31 29 27 37 41
59 58 55 54 53 50 50 50 49 47 46 43 42 42 42 41 41 42 39 38 38 37 36 35 36 35 28 29 28 31 40 40
56 56 53 50 47 49 49 49 47 43 40 41 40 39 39 40 39 39 39 37 39 37 35 33 30 36 30 25 26 36 39 36
55 53 49 48 49 49 48 47 45 40 38 39 38 39 39 38 40 38 39 37 39 39 36 31 33 38 29 26 19 21 29 34
47 47 47 47 47 45 45 46 44 41 37 36 37 38 38 39 40 40 39 39 38 39 38 36 32 34 39 29 23 20 28 27
43 43 41 41 42 42 43 41 41 40 36 35 36 39 39 38 39 40 40 39 39 38 36 35 31 26 26 32 31 30 23 21
41 41 41 41 42 43 42 41 39 36 36 39 38 39 39 38 38 39 39 38 38 36 32 29 27 24 23 24 24 24 24 26
41 39 38 40 40 41 40 38 36 36 38 38 39 39 39 40 39 39 39 37 35 33 33 30 28 26 24 23 20 19 18 21
38 37 36 37 37 37 37 37 37 38 39 38 39 37 39 39 40 39 36 34 34 33 30 29 28 24 23 20 24 23 25 23
37 36 37 38 38 38 39 39 37 34 33 32 32 34 36 40 39 36 35 34 31 32 31 31 30 28 27 28 27 26 29 29

GFSFLT2_sfc_30mbdewp_021.txt.gz
Dewpoint
64 63 64 66 67 67 66 65 65 64 64 62 60 60 60 59 59 59 59 59 59 60 60 60 60 58 57 54 53 53 51 41
64 64 63 65 66 66 65 64 63 63 62 60 58 58 58 58 59 60 60 60 61 61 61 59 57 56 52 46 46 50 42 40
63 61 61 61 63 64 63 63 62 61 59 57 56 53 55 54 55 58 59 59 58 56 56 55 52 53 53 44 45 42 42 39
62 62 60 58 55 58 54 52 51 54 54 54 54 55 55 54 54 56 56 52 54 52 52 51 53 45 43 43 42 42 38 38
63 65 63 55 55 52 49 51 55 57 58 57 57 55 55 54 51 51 52 50 50 49 49 47 48 46 44 44 43 41 37 37
63 64 61 55 52 49 51 52 55 54 56 59 58 57 55 52 50 50 51 49 49 48 47 47 45 43 43 43 41 40 38 38
60 59 57 56 52 55 56 56 60 61 60 61 61 58 59 59 58 54 50 49 48 47 46 44 43 41 41 40 41 39 39 38
55 55 55 53 56 58 60 60 60 62 63 63 62 60 57 55 55 54 50 49 48 45 44 42 41 40 39 38 39 38 38 38
54 55 55 57 60 57 57 57 57 59 61 61 60 60 58 56 53 52 49 47 45 42 42 40 38 37 37 36 35 34 35 34
56 55 58 58 57 58 58 58 57 59 59 59 58 57 53 53 51 48 48 44 42 41 39 38 38 37 36 35 34 32 32 34
58 58 59 58 59 58 57 57 56 56 54 51 51 50 49 47 45 45 44 41 40 40 39 40 38 38 36 33 34 31 32 28
59 60 59 59 59 57 55 56 54 51 48 46 45 45 45 43 43 44 42 40 40 42 42 41 39 36 31 33 34 28 27 27
60 59 60 59 56 55 54 49 48 47 44 44 44 43 42 42 40 40 41 41 41 40 40 39 32 30 30 31 30 31 30 27
59 58 58 57 54 51 49 48 45 43 43 43 42 41 41 39 42 41 40 39 37 35 35 35 32 30 30 30 26 24 24 26
56 56 55 51 50 49 48 46 44 41 42 40 41 42 41 40 40 39 38 35 32 33 34 35 31 30 29 27 24 21 24 25
53 51 50 50 45 42 42 41 41 42 40 41 41 41 41 39 37 37 36 35 34 33 31 34 32 29 29 28 28 27 24 20
48 47 43 43 44 44 43 42 41 40 39 37 35 31 28 27 26 28 35 36 34 35 35 33 32 32 29 29 24 22 20 17
44 41 42 43 43 43 42 39 36 33 30 25 23 21 21 21 23 26 28 33 35 34 34 34 34 33 27 25 22 19 17 17
42 41 42 42 39 36 36 34 27 25 23 21 22 21 21 22 26 28 30 30 33 33 35 35 36 29 26 25 22 21 22 20
40 41 39 37 35 32 28 27 27 24 24 25 23 22 22 24 26 30 32 32 33 37 35 37 34 31 28 26 26 24 23 22

GFSFLT2_sfc_30mbdewp_024.txt.gz
Dewpoint
66 65 65 66 66 66 65 64 64 64 61 60 60 60 60 59 60 60 60 60 61 61 60 59 58 57 51 47 48 48 48 50
64 64 66 66 65 64 63 63 63 62 59 58 58 58 58 58 59 59 59 59 59 58 57 55 55 55 53 48 46 47 45 49
63 63 65 65 64 63 63 62 61 60 57 57 57 56 57 57 57 56 56 56 56 53 51 51 53 54 53 51 48 44 44 48
61 63 64 64 60 61 59 58 58 57 54 54 57 58 53 54 56 53 53 51 53 52 52 51 52 49 48 48 46 45 43 47
63 62 61 58 58 60 56 55 58 60 59 59 58 58 56 55 57 53 56 53 55 52 53 51 49 48 47 47 46 43 42 44
63 62 60 56 55 54 53 56 59 59 60 60 60 59 58 59 59 57 55 53 52 52 51 51 48 46 46 45 44 44 43 42
62 62 58 55 56 58 62 63 63 63 64 64 64 61 60 58 56 55 56 53 52 51 49 46 45 45 45 44 42 41 41 42
60 58 57 57 59 62 61 60 60 62 63 63 62 61 58 56 57 55 54 51 49 49 48 46 44 43 41 42 41 39 40 42
57 57 56 60 60 58 58 57 57 61 61 62 61 60 59 56 55 54 52 49 47 47 45 44 42 41 41 40 39 38 37 38
56 55 60 61 58 58 58 59 59 60 60 59 59 58 55 54 53 51 49 49 45 44 44 44 43 43 42 40 39 38 34 35
56 58 60 59 59 60 59 58 57 57 55 54 53 51 50 50 48 49 47 46 45 45 46 45 44 42 39 34 37 35 36 33
58 60 60 59 60 58 57 57 56 54 52 50 49 47 47 47 48 46 45 45 45 45 45 45 43 38 33 31 36 37 33 34
60 60 61 60 59 58 55 55 52 50 47 47 45 45 43 43 45 45 45 44 44 42 40 39 39 38 35 34 33 32 32 29
60 60 60 59 59 57 54 51 50 47 46 45 44 44 43 43 43 43 43 42 39 40 38 38 38 37 33 32 30 29 29 30
59 59 59 59 56 52 50 47 46 44 45 44 43 43 43 42 41 41 40 39 38 39 38 37 36 34 34 32 29 28 30 30
58 57 57 53 50 48 46 44 44 44 44 44 43 42 40 37 35 37 40 40 39 40 36 38 36 33 33 33 32 31 26 23
57 53 50 48 46 47 46 45 44 43 41 37 35 31 28 27 29 33 34 34 38 39 39 37 36 34 34 32 29 28 26 23
50 45 44 45 46 46 44 40 37 35 30 28 27 26 27 29 30 32 34 35 36 39 38 38 37 38 37 32 28 25 22 23
45 43 44 45 44 41 38 32 32 31 30 28 26 26 26 29 29 31 33 35 36 38 38 37 38 38 36 31 28 28 26 25
43 43 43 41 39 35 33 32 32 32 31 27 27 26 27 27 30 31 32 34 35 37 38 37 38 38 35 35 31 31 29 27

GFSFLT2_sfc_30mbdewp_030.txt.gz
Dewpoint
64 63 64 65 65 64 63 61 61 62 62 61 61 60 60 60 59 59 59 58 56 55 55 54 52 52 52 54 51 53 52 55
62 63 63 64 63 63 61 59 59 60 60 59 58 59 58 58 58 58 57 55 53 53 53 52 52 53 51 49 49 52 49 54
59 59 64 63 63 62 61 59 59 58 59 59 58 58 58 58 56 56 55 55 53 51 52 54 50 50 51 47 45 48 49 53
61 63 63 62 60 61 60 58 58 57 57 57 55 56 57 58 56 57 56 53 53 55 54 52 48 48 47 46 44 44 49 51
60 63 62 60 59 59 59 57 55 55 55 56 57 58 57 56 55 54 54 55 53 50 48 46 46 46 45 45 43 42 44 49
61 63 62 59 57 57 56 54 56 56 60 59 59 59 57 56 54 55 54 51 49 48 46 44 42 43 42 41 40 40 41 44
61 62 61 59 58 56 57 61 62 63 61 61 59 55 55 55 54 52 50 49 48 45 45 42 42 41 42 40 40 39 36 38
61 61 58 58 60 61 62 63 62 61 60 60 58 56 57 55 53 50 48 47 46 44 44 43 43 43 42 40 40 36 35 34
61 58 60 61 60 60 60 61 60 60 60 60 59 58 55 54 50 48 48 47 45 45 45 44 43 43 40 37 37 36 35 33
58 60 59 58 57 56 58 59 59 60 60 59 58 56 55 52 48 46 47 47 46 45 44 43 43 42 36 33 34 36 33 31
57 59 58 57 56 56 57 58 58 58 57 57 56 54 53 48 46 45 47 45 44 43 42 41 41 38 36 35 37 34 32 32
59 58 58 57 56 57 57 57 56 55 54 53 48 48 49 47 46 45 44 41 39 39 37 38 39 38 36 31 32 33 31 31
58 58 57 56 55 55 56 55 54 53 52 48 45 45 45 44 44 42 41 39 38 39 38 36 36 37 33 32 31 33 31 31
58 58 57 56 56 56 56 55 52 50 47 45 44 44 44 43 42 41 40 38 37 37 38 36 38 35 32 33 29 30 30 29
58 58 58 56 55 56 54 50 47 45 44 44 43 43 42 42 41 40 40 40 39 39 39 37 35 35 34 31 29 28 29 28
59 59 58 57 56 56 53 49 44 44 44 44 44 43 37 35 33 33 33 34 34 36 39 38 37 34 34 34 32 30 26 25
59 59 58 58 58 54 51 47 45 45 44 42 35 31 33 32 31 32 34 35 35 35 37 38 37 35 35 35 33 30 28 25
59 59 58 57 58 51 49 45 44 42 39 31 28 31 32 31 32 32 31 33 35 36 38 37 37 37 36 36 34 31 26 24
58 55 51 49 52 47 45 42 39 36 31 28 29 29 29 28 30 30 31 32 32 36 37 36 36 36 36 35 34 32 30 28
51 47 43 42 42 40 36 33 32 31 31 30 29 29 29 29 29 29 30 30 29 31 33 35 37 37 37 36 35 34 33 31

GFSFLT2_sfc_30mbdewp_036.txt.gz
Dewpoint
64 62 60 63 64 64 64 65 64 64 64 64 63 62 61 60 59 59 58 56 57 58 57 54 54 57 55 54 55 56 56 58
61 60 59 63 63 63 64 64 64 63 63 61 60 59 59 59 59 59 57 55 55 55 58 55 52 55 56 54 52 53 55 58
59 60 62 61 61 61 62 63 62 61 60 59 59 59 58 56 58 57 55 55 56 56 53 55 54 54 52 51 49 49 52 55
60 59 61 61 60 59 59 60 60 59 58 57 57 57 56 57 57 56 56 56 57 53 52 50 47 45 45 44 44 45 48 50
58 58 59 60 60 58 57 58 57 57 57 56 56 58 57 55 54 54 52 50 47 46 44 43 42 41 41 40 38 38 42 46
57 58 60 61 60 57 56 55 56 56 56 56 57 57 55 54 55 52 49 48 44 43 43 43 42 41 40 37 36 35 36 36
55 58 62 60 58 57 55 55 55 55 56 57 58 56 55 54 53 51 49 47 44 43 43 43 41 39 38 36 36 34 34 35
55 58 62 60 57 56 55 56 57 59 59 58 56 55 54 52 50 48 46 45 44 44 43 43 40 38 37 36 35 32 31 32
58 60 62 60 57 56 57 58 61 60 59 57 55 55 53 50 48 47 45 45 45 45 43 43 39 36 34 36 34 32 30 29
60 61 60 59 57 57 58 60 60 59 58 57 56 56 53 49 48 46 46 45 44 43 41 40 37 36 34 36 33 32 29 28
59 60 59 59 57 58 59 60 59 59 59 58 56 54 51 47 47 46 45 44 42 39 39 38 35 36 35 35 33 31 29 27
59 59 59 58 57 58 58 57 57 57 57 57 55 53 48 46 46 44 42 40 39 37 36 38 37 36 34 33 32 32 31 28
59 58 57 57 57 57 56 55 55 54 54 52 52 49 46 46 44 42 41 39 38 37 37 35 37 35 33 33 33 32 31 29
59 58 57 56 56 55 55 54 53 53 50 47 49 47 45 44 42 41 39 38 38 38 37 37 37 35 32 32 30 30 30 30
58 58 57 56 55 55 53 51 50 49 46 44 46 45 44 43 41 40 39 37 35 37 37 36 34 35 34 32 29 28 30 30
58 58 57 55 55 54 53 52 50 48 45 44 44 44 42 40 36 34 34 35 34 35 37 37 36 34 35 35 32 31 29 29
58 58 57 56 55 55 53 52 51 47 44 43 39 37 35 34 34 34 34 34 34 36 37 37 37 35 34 34 34 33 31 29
57 57 57 57 56 55 54 51 48 46 43 38 35 34 33 33 32 31 31 32 33 36 37 36 36 36 36 35 34 32 31 29
57 57 57 57 56 55 54 51 48 46 43 37 33 32 32 32 31 32 32 31 33 34 33 35 35 35 35 35 36 34 32 30
57 57 57 57 57 56 54 53 49 46 43 37 35 33 33 32 32 34 36 32 30 30 30 31 33 35 35 36 36 36 35 33